Powrót do katalogu

PAYLOAD A DEB

AktywnySSO
NORAD 39357·DEBRIS·🇨🇳 China

Wystrzelony Jul 19, 2013 z Taiyuan Satellite Launch Center

Loading…

Następne Przeloty (najbliższe 24 godziny)

TLE

ŚwieżeSource: Space-Track

Epoka: Sep 13, 2026, 22:48 UTC

1 39357U 13037J   26256.95022404  .00000405  00000-0  71210-4 0  9992
2 39357  98.0888 260.2292 0006853 210.2317 149.8496 14.72809463705345

Śledź PAYLOAD A DEB w czasie rzeczywistym z AllMySat

Download on the App Store